User: anonymous   Login
Location: Vancouver
(49.2500°N, 123.1330°W)
Time: 19:37:42
(UTC-07:00)
Language:

ISS - Orbit

View from above orbital plane
View from above orbital plane
View from above satellite
View from above satellite

Ground track
Ground track

The orbit data is extracted from the following two-line orbital elements,

1 25544U 98067A   17205.58830587  .00016717  00000-0  10270-3 0  9039
2 25544  51.6359 211.8918 0006131  64.6780 295.5008 15.54210867 27561
Epoch (UTC): 24 July 2017 14:07:09
Eccentricity: 0.0006131
inclination: 51.6359°
perigee height: 400 km
apogee height: 408 km
right ascension of ascending node: 211.8918°
argument of perigee: 64.6780°
revolutions per day: 15.54210867
mean anomaly at epoch: 295.5008°
orbit number at epoch: 2756

The dashed part of the orbit path shows where the satellite is in the earth's shadow,  

DLR